Voltar ao catálogo

STARLINK-30154

AtivoComunicaçõesVLEO
NORAD 57495·PAYLOAD·🇺🇸 United States

Lançado Aug 7, 2023 de Cape Canaveral Space Force Station

Loading…

Próximas Passagens (próximas 24 horas)

TLE

AtualizadoSource: CelesTrak SupGP

Época: Sep 15, 2026, 02:24 UTC

1 57495C 23113A   26258.10048611 -.00011622  00000+0 -42091-3 0  2584
2 57495  43.0047  26.1977 0002203 269.1084 143.0599 15.27587184    19

Acompanhe STARLINK-30154 em tempo real com AllMySat

Download on the App Store